Location: Bégole
(43.1574°N, 0.3291°E)
Time: 09:34:33
(UTC+00:00)

NOAA 16 DEB - Pass Details

Date: 27 February 2024
Orbit: 831 x 876 km, 98.7° (Epoch: 12 April)

Event Time Altitude Azimuth Distance (km) Brightness Sun altitude
Rises 19:38:53 0° 179° (S) 3,409 ? -21.6°
Reaches altitude 10° 19:41:20 10° 185° (S) 2,471 ? -22.0°
Maximum altitude 19:46:38 50° 260° (W) 1,063 ? -23.0°
Drops below altitude 10° 19:51:56 10° 336° (NNW) 2,461 ? -23.9°
Sets 19:54:23 0° 342° (NNW) 3,396 ? -24.3°
